Winnemucca, NV

1:25 PM PDT on April 26, 2018 (GMT -0700)
Winnemucca Municipal

Weather History for KWMC - September, 2012

Change the Weather History Date:

Sunday, September 30, 2012

  Actual Average Record
Temperature  
Mean Temperature 62 °F 54 °F  
Max Temperature 87 °F 75 °F 95 °F (2010)
Min Temperature 37 °F 34 °F 17 °F (1950)
Degree Days  
Heating Degree Days 3 11  
Month to date heating degree days 78 174  
Since 1 July heating degree days 78 204  
Cooling Degree Days 0 0  
Month to date cooling degree days 35 31  
Year to date cooling degree days 681 541  
Growing Degree Days 12 (Base 50)    
Moisture  
Dew Point 25 °F    
Average Humidity 32    
Maximum Humidity 52    
Minimum Humidity 11    
Precipitation  
Precipitation 0.00 in 0.02 in 0.59 in (1984)
Month to date precipitation 0.03 0.44  
Year to date precipitation 3.41 5.80  
Snow  
Snow 0.00 in 0.00 in 0.20 in (1971)
Month to date snowfall 0.0 T  
Since 1 July snowfall 0.0 T  
Since 1 September snowfall 0.0 T  
Snow Depth 0.00 in    
Sea Level Pressure  
Sea Level Pressure 30.18 in    
Wind  
Wind Speed 5 mph (NW)    
Max Wind Speed 13 mph    
Max Gust Speed 20 mph    
Visibility 10 miles    
Events      
T = Trace of Precipitation, MM = Missing Value Source: NWS Daily Summary

Daily Weather History Graph

Daily Weather History Graph

Search for Another Location

Airport or City:

Astronomy

Sep. 30, 2012 Rise Set
Actual Time 6:47 AM PDT 6:33 PM PDT
Civil Twilight 6:20 AM PDT 7:01 PM PDT
Nautical Twilight 5:48 AM PDT 7:33 PM PDT
Astronomical Twilight 5:15 AM PDT 8:05 PM PDT
Moon 6:39 PM PDT (9/30) 7:23 AM PDT (9/30)
Length of Visible Light 12h 41m
Length of Day
11h 46m
Full, 100% of the Moon is Illuminated
Sep 30
Full
Oct 8
Last Quarter
Oct 15
New
Oct 21
First Quarter
Oct 29
Full

Hourly Weather History & Observations

Time (PDT) Temp. Windchill Dew Point Humidity Pressure Visibility Wind Dir Wind Speed Gust Speed Precip Events Conditions
12:56 AM 46.0 °F 43.9 °F 23.0 °F 40% 30.13 in 10.0 mi West 4.6 mph - N/A   Clear
1:56 AM 43.0 °F 40.3 °F 21.9 °F 43% 30.14 in 10.0 mi SSW 4.6 mph - N/A   Clear
2:56 AM 42.1 °F 38.4 °F 25.0 °F 51% 30.14 in 10.0 mi SSE 5.8 mph - N/A   Clear
3:56 AM 39.9 °F 35.8 °F 21.9 °F 49% 30.16 in 10.0 mi SSE 5.8 mph - N/A   Clear
4:56 AM 39.9 °F - 23.0 °F 51% 30.16 in 10.0 mi Calm Calm - N/A   Clear
5:56 AM 37.0 °F 31.0 °F 21.9 °F 54% 30.19 in 10.0 mi SSE 8.1 mph - N/A   Clear
6:56 AM 41.0 °F 38.0 °F 23.0 °F 49% 30.23 in 10.0 mi ESE 4.6 mph - N/A   Clear
7:56 AM 46.0 °F - 24.1 °F 42% 30.24 in 10.0 mi Calm Calm - N/A   Clear
8:56 AM 59.0 °F - 27.0 °F 29% 30.25 in 10.0 mi NNE 3.5 mph - N/A   Clear
9:56 AM 68.0 °F - 28.9 °F 23% 30.23 in 10.0 mi NNE 4.6 mph - N/A   Clear
10:56 AM 75.0 °F - 28.9 °F 18% 30.22 in 10.0 mi NNW 4.6 mph - N/A   Clear
11:56 AM 80.1 °F - 28.9 °F 15% 30.20 in 10.0 mi Variable 3.5 mph - N/A   Clear
12:56 PM 82.9 °F - 27.0 °F 13% 30.18 in 10.0 mi North 5.8 mph - N/A   Clear
1:56 PM 84.9 °F - 27.0 °F 12% 30.16 in 10.0 mi Variable 5.8 mph - N/A   Clear
2:56 PM 84.9 °F - 26.1 °F 12% 30.15 in 10.0 mi West 8.1 mph 16.1 mph N/A   Clear
3:56 PM 86.0 °F - 27.0 °F 12% 30.14 in 10.0 mi WSW 9.2 mph - N/A   Clear
4:56 PM 84.9 °F - 24.1 °F 11% 30.13 in 10.0 mi NW 5.8 mph - N/A   Clear
5:56 PM 82.9 °F - 23.0 °F 11% 30.14 in 10.0 mi NNW 3.5 mph - N/A   Clear
6:56 PM 73.0 °F - 26.1 °F 17% 30.17 in 10.0 mi Calm Calm - N/A   Clear
7:56 PM 57.9 °F - 21.0 °F 24% 30.20 in 10.0 mi Calm Calm - N/A   Clear
8:56 PM 55.0 °F - 19.9 °F 25% 30.19 in 10.0 mi West 4.6 mph - N/A   Clear
9:56 PM 53.1 °F - 19.9 °F 27% 30.19 in 10.0 mi North 8.1 mph - N/A   Clear
10:56 PM 66.0 °F - 24.1 °F 20% 30.16 in 10.0 mi NNE 9.2 mph - 0.01 in   Clear
11:56 PM 61.0 °F - 26.1 °F 26% 30.16 in 10.0 mi Variable 3.5 mph - N/A   Clear